Weather History for Morris, IL

Change the Weather History Date:

Saturday, July 26, 2014

  Actual Average (KLOT) Record (KLOT)
Temperature  
Mean Temperature 74 °F 74 °F  
Max Temperature 80 °F 84 °F 97 °F (1997)
Min Temperature 68 °F 64 °F 54 °F (1994)
Degree Days  
Heating Degree Days 0 0  
Month to date heating degree days 0  
Since 1 June heating degree days 33  
Since 1 July heating degree days 0  
Cooling Degree Days 8 9  
Month to date cooling degree days 234  
Year to date cooling degree days 472  
Since 1 June cooling degree days 414  
Growing Degree Days 24 (Base 50)    
Moisture  
Dew Point 67 °F    
Average Humidity 82    
Maximum Humidity 100    
Minimum Humidity 73    
Precipitation  
Precipitation 0.00 in 0.16 in 1.67 in (2005)
Month to date precipitation 3.89  
Year to date precipitation 22.93  
Sea Level Pressure  
Sea Level Pressure 29.85 in    
Wind  
Wind Speed 5 mph (SSW)    
Max Wind Speed 10 mph    
Max Gust Speed 17 mph    
Visibility 9 miles    
Events Rain    
T = Trace of Precipitation, MM = Missing Value Source: NWS Daily Summary

Daily Weather History Graph

Daily Weather History Graph

Search for Another Location

Airport:

Trip Planner

Search our weather history database for the weather conditions in past years. The results will help you decide how hot, cold, wet, or windy it might be!

Date:

Astronomy

Jul. 26, 2014 Rise Set
Actual Time 5:42 AM CDT 8:17 PM CDT
Civil Twilight 5:11 AM CDT 8:48 PM CDT
Nautical Twilight 4:31 AM CDT 9:28 PM CDT
Astronomical Twilight 3:46 AM CDT 10:12 PM CDT
Moon 5:36 AM CDT (7/26) 7:50 PM CDT (7/26)
Length of Visible Light 15h 37m
Length of Day
14h 34m
Waning Crescent, 0% of the Moon is Illuminated
Jul 26
Waning Crescent
Jul 26
New
Aug 3
First Quarter
Aug 10
Full
Aug 17
Last Quarter

Hourly Weather History & Observations

Time (CDT) Temp. Dew Point Humidity Pressure Visibility Wind Dir Wind Speed Gust Speed Precip Events Conditions
12:15 AM 68.4 °F 60.4 °F 76% 29.92 in 10.0 mi South 4.6 mph - N/A   Overcast
12:35 AM 68.4 °F 60.4 °F 76% 29.92 in 10.0 mi South 4.6 mph - N/A   Overcast
12:55 AM 68.7 °F 60.4 °F 75% 29.91 in 10.0 mi South 4.6 mph - N/A   Overcast
1:15 AM 68.9 °F 60.8 °F 75% 29.91 in 10.0 mi South 5.8 mph - N/A   Overcast
1:35 AM 69.1 °F 60.8 °F 75% 29.90 in 10.0 mi South 5.8 mph - N/A   Overcast
1:55 AM 69.3 °F 60.8 °F 74% 29.90 in 10.0 mi South 5.8 mph - N/A   Overcast
2:15 AM 69.4 °F 61.0 °F 74% 29.90 in 10.0 mi South 5.8 mph - N/A   Overcast
2:35 AM 69.4 °F 61.0 °F 74% 29.89 in 10.0 mi South 8.1 mph - N/A   Overcast
2:55 AM 69.1 °F 61.3 °F 76% 29.89 in 10.0 mi South 8.1 mph - N/A   Overcast
3:15 AM 68.9 °F 61.7 °F 78% 29.88 in 10.0 mi South 5.8 mph - N/A   Overcast
3:35 AM 68.9 °F 61.7 °F 78% 29.87 in 10.0 mi South 4.6 mph - N/A   Overcast
3:55 AM 68.7 °F 61.9 °F 79% 29.86 in 10.0 mi SSE 4.6 mph - N/A   Overcast
4:15 AM 68.9 °F 62.1 °F 79% 29.86 in 10.0 mi SSE 5.8 mph - N/A   Overcast
4:35 AM 68.4 °F 62.1 °F 80% 29.86 in 10.0 mi SSE 4.6 mph - N/A   Overcast
4:55 AM 68.9 °F 62.2 °F 79% 29.86 in 10.0 mi SSE 5.8 mph - N/A   Overcast
5:15 AM 68.2 °F 62.8 °F 83% 29.85 in 10.0 mi SSE 5.8 mph - N/A Rain Light Rain
5:35 AM 68.2 °F 62.8 °F 83% 29.85 in 10.0 mi SSE 4.6 mph - N/A   Overcast
5:55 AM 68.4 °F 62.6 °F 82% 29.84 in 10.0 mi SSE 4.6 mph - N/A   Mostly Cloudy
6:15 AM 68.4 °F 62.8 °F 82% 29.84 in 10.0 mi SSE 4.6 mph - N/A   Mostly Cloudy
6:35 AM 68.5 °F 63.1 °F 83% 29.84 in 10.0 mi South 4.6 mph - N/A   Overcast
6:55 AM 68.9 °F 63.5 °F 83% 29.85 in 10.0 mi South 4.6 mph - N/A   Overcast
7:15 AM 68.9 °F 63.7 °F 83% 29.85 in 10.0 mi South 4.6 mph - N/A   Overcast
7:35 AM 69.8 °F 64.0 °F 82% 29.85 in 10.0 mi South 4.6 mph - N/A   Mostly Cloudy
7:55 AM 70.0 °F 64.4 °F 82% 29.85 in 10.0 mi South 4.6 mph - N/A   Mostly Cloudy
8:15 AM 70.7 °F 64.4 °F 80% 29.84 in 10.0 mi SSE 5.8 mph - N/A   Overcast
8:35 AM 70.9 °F 64.8 °F 81% 29.84 in 10.0 mi South 4.6 mph - N/A   Overcast
8:55 AM 70.9 °F 65.1 °F 82% 29.84 in 10.0 mi SSE 4.6 mph - N/A   Overcast
9:15 AM 72.0 °F 65.7 °F 80% 29.84 in 10.0 mi South 4.6 mph - N/A   Overcast
10:35 AM 73.4 °F 67.1 °F 81% 29.86 in 10.0 mi SSW 4.6 mph - N/A   Scattered Clouds
10:55 AM 73.8 °F 67.3 °F 80% 29.86 in 10.0 mi WSW 5.8 mph - N/A   Clear
11:35 AM 76.1 °F 68.4 °F 77% 29.84 in 10.0 mi Calm Calm - N/A   Scattered Clouds
1:15 PM 78.1 °F 69.1 °F 74% 29.84 in 10.0 mi Calm Calm - N/A   Mostly Cloudy
1:35 PM 79.2 °F 69.8 °F 73% 29.84 in 10.0 mi Calm Calm - N/A   Mostly Cloudy
1:55 PM 78.1 °F 69.8 °F 76% 29.84 in 10.0 mi Calm Calm - N/A   Overcast
2:15 PM 78.3 °F 70.2 °F 76% 29.82 in 10.0 mi South 5.8 mph - N/A   Scattered Clouds
2:35 PM 78.4 °F 70.7 °F 77% 29.79 in 10.0 mi South 10.4 mph 17.3 mph N/A   Clear
2:55 PM 78.3 °F 70.7 °F 77% 29.80 in 10.0 mi South 6.9 mph - N/A   Scattered Clouds
3:15 PM 78.1 °F 71.1 °F 79% 29.83 in 10.0 mi West 5.8 mph - N/A   Mostly Cloudy
3:35 PM 77.9 °F 71.4 °F 80% 29.82 in 10.0 mi West 4.6 mph - N/A   Overcast
3:55 PM 78.4 °F 71.6 °F 79% 29.83 in 10.0 mi WNW 5.8 mph - N/A   Overcast
4:15 PM 78.3 °F 71.4 °F 79% 29.83 in 10.0 mi WNW 5.8 mph - N/A   Overcast
4:35 PM 78.8 °F 71.4 °F 78% 29.84 in 10.0 mi WNW 6.9 mph - N/A   Overcast
4:55 PM 78.8 °F 71.4 °F 78% 29.86 in 7.0 mi West 6.9 mph - N/A   Mostly Cloudy
5:15 PM 78.8 °F 71.8 °F 79% 29.87 in 10.0 mi West 5.8 mph - N/A   Overcast
5:35 PM 79.2 °F 71.8 °F 78% 29.87 in 10.0 mi West 8.1 mph - N/A   Mostly Cloudy
5:55 PM 78.8 °F 71.6 °F 78% 29.85 in 10.0 mi SW 6.9 mph - N/A   Overcast
6:15 PM 78.8 °F 72.0 °F 79% 29.83 in 7.0 mi SW 5.8 mph - N/A   Scattered Clouds
6:35 PM 78.4 °F 72.0 °F 80% 29.84 in 10.0 mi SW 5.8 mph - N/A   Mostly Cloudy
6:55 PM 78.3 °F 72.3 °F 82% 29.83 in 10.0 mi Calm Calm - N/A   Overcast
7:15 PM 78.3 °F 72.1 °F 81% 29.82 in 10.0 mi Calm Calm - N/A   Overcast
7:35 PM 78.1 °F 72.1 °F 82% 29.82 in 7.0 mi Calm Calm - N/A   Overcast
7:55 PM 77.9 °F 72.7 °F 84% 29.81 in 7.0 mi Calm Calm - N/A   Overcast
8:15 PM 77.0 °F 72.7 °F 86% 29.80 in 7.0 mi Calm Calm - N/A   Mostly Cloudy
8:35 PM 74.8 °F 72.3 °F 92% 29.80 in 7.0 mi Calm Calm - N/A   Scattered Clouds
8:55 PM 73.4 °F 72.5 °F 97% 29.81 in 5.0 mi Calm Calm - N/A   Scattered Clouds
9:15 PM 73.0 °F 72.7 °F 99% 29.81 in 4.0 mi Calm Calm - N/A   Scattered Clouds
9:35 PM 73.0 °F 73.0 °F 100% 29.83 in 4.0 mi Calm Calm - N/A   Clear
9:55 PM 72.0 °F 72.0 °F 100% 29.84 in 3.0 mi Calm Calm - N/A   Clear
10:15 PM 70.7 °F 70.7 °F 100% 29.84 in 2.5 mi WSW 4.6 mph - N/A   Clear
10:35 PM 71.2 °F 71.2 °F 100% 29.84 in 2.0 mi WSW 4.6 mph - N/A   Clear
10:55 PM 70.7 °F 70.7 °F 100% 29.84 in 2.5 mi WSW 3.5 mph - N/A   Clear
11:15 PM 70.5 °F 70.5 °F 100% 29.84 in 2.5 mi West 3.5 mph - N/A   Clear
11:35 PM 70.0 °F 70.0 °F 100% 29.84 in 1.8 mi West 3.5 mph - N/A   Mist
11:55 PM 69.8 °F 69.8 °F 100% 29.84 in 1.5 mi Calm Calm - N/A   Mist